| time (UTC) | temp F | wind direction | speed knots | gust knots | rain 1hr in | rain 24hr in | rain mn in | humidity % | barometer mb |
| 20260504081548 | 45 | 180 | 3.5 | 6.1 | 0.00 | 0.00 | 0.00 | 66 | 1009.9 |
| 20260504044535 | 45 | 191 | 0.9 | 4.3 | 0.00 | 0.00 | 0.00 | 62 | 1010.9 |
| 20260504043041 | 45 | 191 | 2.6 | 4.3 | 0.00 | 0.00 | 0.00 | 62 | 1011.3 |
| 20260504041535 | 44 | 202 | 1.7 | 4.3 | 0.00 | 0.00 | 0.00 | 63 | 1011.3 |
| 20260504040040 | 43 | 227 | 2.6 | 6.1 | 0.00 | 0.00 | 0.00 | 63 | 1011.3 |
| 20260504034537 | 43 | 0 | 0.9 | 2.6 | 0.00 | 0.00 | 0.00 | 61 | 1011.1 |
| 20260504033039 | 43 | 279 | 0.9 | 2.6 | 0.00 | 0.00 | 0.00 | 60 | 1010.9 |
| 20260504031535 | 44 | 0 | 0.0 | 0.0 | 0.00 | 0.00 | 0.00 | 56 | 1010.8 |
| 20260504030036 | 44 | 0 | 0.0 | 0.0 | 0.00 | 0.00 | 0.00 | 55 | 1010.8 |
| 20260504024535 | 45 | 0 | 0.0 | 1.7 | 0.00 | 0.00 | 0.00 | 53 | 1010.7 |
| 20260504023038 | 46 | 279 | 0.0 | 1.7 | 0.00 | 0.00 | 0.00 | 51 | 1010.8 |
| 20260504021537 | 47 | 279 | 0.9 | 1.7 | 0.00 | 0.00 | 0.00 | 49 | 1010.8 |
| 20260504020057 | 48 | 278 | 0.0 | 2.6 | 0.00 | 0.00 | 0.00 | 48 | 1010.8 |
| 20260504014553 | 49 | 279 | 0.0 | 2.6 | 0.00 | 0.00 | 0.00 | 46 | 1010.9 |
| 20260504013044 | 49 | 0 | 0.9 | 3.5 | 0.00 | 0.00 | 0.00 | 45 | 1010.9 |
| 20260504011538 | 50 | 284 | 0.9 | 6.1 | 0.00 | 0.00 | 0.00 | 44 | 1010.7 |
| 20260504010043 | 51 | 263 | 1.7 | 8.7 | 0.00 | 0.00 | 0.00 | 42 | 1010.5 |
| 20260504004550 | 51 | 219 | 2.6 | 8.7 | 0.00 | 0.00 | 0.00 | 41 | 1010.4 |
| 20260504003037 | 52 | 234 | 2.6 | 8.7 | 0.00 | 0.00 | 0.00 | 40 | 1010.2 |
| 20260504001555 | 52 | 265 | 5.2 | 11.3 | 0.00 | 0.00 | 0.00 | 39 | 1009.9 |
| 20260504000037 | 53 | 247 | 3.5 | 12.2 | 0.00 | 0.00 | 0.00 | 38 | 1009.7 |
| 20260503234535 | 54 | 322 | 4.3 | 13.0 | 0.00 | 0.00 | 0.00 | 36 | 1009.6 |
| 20260503233041 | 54 | 275 | 4.3 | 14.8 | 0.00 | 0.00 | 0.00 | 35 | 1009.3 |
| 20260503231537 | 55 | 285 | 3.5 | 10.4 | 0.00 | 0.00 | 0.00 | 34 | 1009.1 |
| 20260503230045 | 55 | 297 | 4.3 | 11.3 | 0.00 | 0.00 | 0.00 | 33 | 1009.0 |
| 20260503224537 | 55 | 262 | 7.8 | 14.8 | 0.00 | 0.00 | 0.00 | 32 | 1008.8 |
| 20260503223036 | 55 | 322 | 6.1 | 17.4 | 0.00 | 0.00 | 0.00 | 32 | 1008.8 |
| 20260503221535 | 56 | 262 | 5.2 | 13.0 | 0.00 | 0.00 | 0.00 | 32 | 1008.6 |
| 20260503220046 | 56 | 285 | 6.1 | 17.4 | 0.00 | 0.00 | 0.00 | 32 | 1008.7 |
| 20260503214537 | 57 | 254 | 7.0 | 16.5 | 0.00 | 0.00 | 0.00 | 32 | 1008.7 |
| 20260503213037 | 57 | 246 | 9.6 | 19.1 | 0.00 | 0.00 | 0.00 | 30 | 1008.6 |
| 20260503211537 | 57 | 262 | 6.1 | 14.8 | 0.00 | 0.00 | 0.00 | 32 | 1008.6 |
| 20260503210033 | 57 | 293 | 4.3 | 12.2 | 0.00 | 0.00 | 0.00 | 34 | 1008.7 |
| 20260503204541 | 56 | 248 | 4.3 | 10.4 | 0.00 | 0.00 | 0.00 | 37 | 1008.7 |
| 20260503203054 | 55 | 342 | 3.5 | 14.8 | 0.00 | 0.00 | 0.00 | 36 | 1009.0 |
| 20260503201538 | 54 | 360 | 4.3 | 13.9 | 0.00 | 0.00 | 0.00 | 37 | 1008.9 |
| 20260503200037 | 54 | 241 | 3.5 | 12.2 | 0.00 | 0.00 | 0.00 | 36 | 1009.1 |
| 20260503194542 | 54 | 290 | 2.6 | 12.2 | 0.00 | 0.00 | 0.00 | 39 | 1009.3 |
| 20260503193038 | 54 | 292 | 5.2 | 13.9 | 0.00 | 0.00 | 0.00 | 37 | 1009.6 |
| 20260503191543 | 53 | 222 | 7.0 | 11.3 | 0.00 | 0.00 | 0.00 | 39 | 1009.8 |
| 20260503190043 | 53 | 258 | 4.3 | 14.8 | 0.00 | 0.00 | 0.00 | 39 | 1009.9 |
| 20260503184537 | 53 | 269 | 7.8 | 14.8 | 0.00 | 0.00 | 0.00 | 41 | 1010.1 |
| 20260503183037 | 52 | 262 | 6.1 | 16.5 | 0.00 | 0.00 | 0.00 | 40 | 1010.3 |
| 20260503181538 | 52 | 298 | 4.3 | 13.0 | 0.00 | 0.00 | 0.00 | 40 | 1010.3 |
| 20260503180037 | 52 | 277 | 7.0 | 17.4 | 0.00 | 0.00 | 0.00 | 40 | 1010.3 |
| 20260503174536 | 52 | 331 | 4.3 | 14.8 | 0.00 | 0.00 | 0.00 | 41 | 1010.5 |
| 20260503173038 | 51 | 0 | 5.2 | 18.2 | 0.00 | 0.00 | 0.00 | 41 | 1010.4 |
| 20260503171537 | 51 | 315 | 6.1 | 13.9 | 0.00 | 0.00 | 0.00 | 39 | 1010.4 |